[[{"header":{"parameterUnit":"m.s-1","parameterCategory":1,"la1":30.2991,"la2":30.254,"lo1":-89.0895,"lo2":-89.0444,"dy":0.0017,"dx":0.0017,"nx":28,"ny":28,"refTime":"2023-08-07T03:00:00:Z","depth":0,"parameterNumber":2,"parameterNumberName":"U-component_of_WINDS"},"data":[0,0,0,0,0,0,0,0,0,0,0,0,0,0,0,0,0,0,0,0,0,0,0,0,0,0,0,0,0,0,0,0,0,0,0,0,0,0,0,0,0,0,0,0,0,0,0,0,0,0,0,0,0,0,0,0,0,0,4.023,4.0232,0,4.0331,4.0333,4.0334,4.0314,4.0312,4.031,4.0309,4.0414,4.0418,4.0423,0,0,0,0,0,0,0,0,0,0,0,0,0,4.0022,4.0026,4.023,4.0232,4.0233,4.0331,4.0333,4.0334,4.0314,4.0312,4.031,4.0308,4.0412,4.0418,4.0423,0,0,0,0,0,0,0,0,0,0,0,0,0,4.0117,4.0028,4.023,4.0235,4.0236,4.0331,4.0333,4.0334,4.0315,4.0312,4.0309,4.0307,4.0411,4.0417,4.0424,4.052,0,0,4.0444,4.0447,0,0,0,0,0,0,0,0,4.0112,4.0125,4.0233,4.0235,4.0236,4.0307,4.0298,4.0397,4.0316,4.0285,4.0309,4.0305,4.0381,4.039,4.0415,4.0525,4.053,4.0445,4.0449,4.0452,4.0454,0,0,0,0,0,0,0,4.0105,4.012,4.027,4.0235,4.0237,4.0233,4.0243,4.0316,4.0347,4.0288,4.0286,4.0298,4.0381,4.0408,4.0417,4.0531,4.0445,4.0451,4.0455,4.0458,4.0727,4.073,0,0,0,0,0,0,4.0097,4.0115,4.0267,4.0273,4.0166,4.0239,4.025,4.0287,4.0346,4.0353,4.0301,4.0297,4.0398,4.0409,4.0421,4.0538,4.0452,4.0458,4.0462,4.0724,4.0728,4.0732,0,0,0,0,0,0,4.0092,4.011,4.0263,4.0194,4.0213,4.0245,4.0287,4.0291,4.0318,4.0356,4.0362,4.0323,4.0396,4.0411,4.0496,4.0542,4.0461,4.0467,4.0721,4.0726,4.073,4.0774,0,0,0,0,0,0,4.0086,4.0109,4.0146,4.0195,4.0217,4.0336,4.029,4.0295,4.0329,4.0326,4.0378,4.0384,4.0395,4.0486,4.0503,4.055,4.0473,4.0717,4.0723,4.0728,4.0769,4.078,4.0789,0,0,0,0,0,4.0079,4.0154,4.0147,4.0166,4.0263,4.0339,4.0351,4.0362,4.0333,4.0371,4.0395,4.0383,4.0534,4.0495,4.0513,4.0563,4.0714,4.0721,4.0728,4.0764,4.0778,4.0789,0,0,0,0,0,0,4.011,4.0161,4.0154,4.0247,4.0289,4.0335,4.0383,4.0376,4.0427,4.0421,4.0433,4.0445,4.0531,4.0556,4.0511,4.066,4.062,4.0631,4.0641,4.0654,4.0664,4.0657,4.0478,0,0,0,0,0,4.0127,4.0184,4.0226,4.0304,4.0325,4.035,4.0384,4.0388,4.0432,4.045,4.0481,4.0524,4.0582,4.0619,4.0674,4.0772,4.0784,4.0816,4.0826,4.0834,4.0843,4.0898,4.0913,4.0755,4.0754,4.0754,0,0,4.0164,4.0199,4.0234,4.0311,4.0344,4.0403,4.0365,4.0429,4.0473,4.046,4.0542,4.0566,4.0615,4.0707,4.0749,4.073,4.089,4.0843,4.0849,4.0854,4.0907,4.0922,4.0935,4.0759,4.0758,4.0758,0,0,4.0262,4.0293,4.0362,4.0396,4.0446,4.0463,4.0479,4.0527,4.0543,4.0625,4.0616,4.0669,4.0768,4.0804,4.0835,4.0947,4.0937,4.0964,4.1018,4.1071,4.1083,4.1094,4.1135,4.1149,4.0974,4.0974,4.0974,0,4.0301,4.039,4.0399,4.0464,4.0498,4.0488,4.0559,4.0591,4.0657,4.0681,4.0659,4.0783,4.0815,4.0916,4.0943,4.0968,4.0988,4.0958,4.108,4.1092,4.1102,4.1141,4.1156,4.0977,4.0976,4.0976,4.0976,0,4.0436,4.0498,4.0548,4.0611,4.0651,4.0718,4.0739,4.0778,4.078,4.0799,4.0883,4.0922,4.0985,4.1009,4.1011,4.111,4.1097,4.1077,4.1037,4.112,4.1157,4.1172,4.0981,4.098,4.0979,4.0978,0,0,4.0556,4.0624,4.0642,4.0671,4.0726,4.0774,4.0841,4.0902,4.0936,4.0982,4.104,4.1123,4.1106,4.1141,4.1147,4.1194,4.1281,4.1169,4.117,4.1189,4.1394,4.1408,4.1425,4.1275,4.1278,4.128,4.139,0,4.0659,4.0777,4.0788,4.0895,4.0952,4.0943,4.1002,4.1043,4.1063,4.1115,4.1137,4.1196,4.1168,4.119,4.1235,4.1261,4.1322,4.1253,4.1329,4.1332,4.1317,4.1444,4.1459,4.1561,4.1404,4.1406,4.1408,0,4.0795,4.0845,4.0957,4.1004,4.1029,4.1081,4.1139,4.1188,4.1234,4.1245,4.1285,4.1285,4.1355,4.1313,4.141,4.1362,4.1394,4.1412,4.1416,4.1424,4.1375,4.1456,4.1593,4.1609,4.1431,4.1429,4.1427,0,4.0872,4.0967,4.1046,4.1071,4.1128,4.1166,4.1191,4.1235,4.1271,4.1321,4.1345,4.1403,4.1435,4.148,4.1496,4.1463,4.1593,4.1551,4.1605,4.1605,4.1633,4.1631,4.1778,4.1653,4.1653,4.1652,4.1652,0,4.0986,4.1055,4.1081,4.113,4.1208,4.122,4.1296,4.132,4.1359,4.1413,4.1409,4.146,4.1478,4.1532,4.1545,4.1624,4.1639,4.165,4.1653,4.1651,4.1649,4.1672,4.1665,4.1656,4.1656,4.1655,4.1654,0,4.1085,4.1105,4.1191,4.1238,4.1252,4.1307,4.1348,4.1395,4.1414,4.1483,4.15,4.153,4.1594,4.1614,4.1691,4.17,4.1792,4.1788,4.1776,4.1777,4.1829,4.1824,4.1996,4.202,4.1879,4.1881,4.1882,0,4.1156,4.1209,4.1262,4.1298,4.1325,4.1382,4.1419,4.1434,4.1472,4.1529,4.157,4.1633,4.1684,4.1786,4.1816,4.1875,4.1873,4.1929,4.1881,4.1878,4.1874,4.1871,4.1876,4.1938,4.1939,4.194,4.1941,0,4.1282,4.1289,4.1342,4.14,4.1444,4.1489,4.1534,4.1563,4.1584,4.1628,4.1692,4.1732,4.181,4.1873,4.1933,4.1961,4.1955,4.1956,4.1972,4.197,4.1961,4.1967,4.1801,4.1952,4.1951,4.195,4.195,4.1949,4.1369,4.1416,4.1461,4.1521,4.1555,4.1597,4.1644,4.1669,4.1723,4.1787,4.1793,4.1863,4.1908,4.1988,4.2019,4.2074,4.2058,4.2081,4.2087,4.2092,4.2096,4.1952,4.2085,4.2085,4.2085,4.2084,4.2084,0,4.1495,4.1523,4.1578,4.164,4.1687,4.1677,4.1725,4.1765,4.1827,4.187,4.192,4.1995,4.2056,4.209,4.2151,4.2189,4.2188,4.2204,4.2202,4.2208,4.2107,4.2087,4.2204,4.2204,4.2204,4.2204,4.2204,4.2204,4.1566,4.1645,4.1658,4.1754,4.1782,4.185,4.1879,4.1918,4.1952,4.2035,4.2085,4.2107,4.2147,4.2211,4.2266,4.2275,4.2298,4.2316,4.2323,4.2228,4.2215,4.2204,4.2185,4.2321,4.2321,4.242,4.2421,4.2422]},{"header":{"parameterUnit":"m.s-1","parameterCategory":1,"la1":30.2991,"la2":30.254,"lo1":-89.0895,"lo2":-89.0444,"dy":0.0017,"dx":0.0017,"nx":28,"ny":28,"refTime":"2023-08-07T03:00:00:Z","depth":0,"parameterNumber":3,"parameterNumberName":"V-component_of_WINDS"},"data":[0,0,0,0,0,0,0,0,0,0,0,0,0,0,0,0,0,0,0,0,0,0,0,0,0,0,0,0,0,0,0,0,0,0,0,0,0,0,0,0,0,0,0,0,0,0,0,0,0,0,0,0,0,0,0,0,0,0,1.0418,1.0418,0,1.0416,1.0416,1.0416,1.0408,1.0408,1.0408,1.0408,1.0406,1.0406,1.0406,0,0,0,0,0,0,0,0,0,0,0,0,0,1.0413,1.0414,1.0418,1.0418,1.0418,1.0416,1.0416,1.0416,1.0408,1.0408,1.0408,1.0407,1.0406,1.0406,1.0406,0,0,0,0,0,0,0,0,0,0,0,0,0,1.0414,1.0414,1.0418,1.0414,1.0413,1.0416,1.0416,1.0416,1.0408,1.0408,1.0408,1.0407,1.0406,1.0406,1.0406,1.0413,0,0,1.0406,1.0407,0,0,0,0,0,0,0,0,1.0414,1.0414,1.0414,1.0414,1.0413,1.0412,1.0414,1.0415,1.0408,1.041,1.0408,1.0407,1.0408,1.0408,1.0408,1.0413,1.0412,1.0406,1.0407,1.0407,1.0407,0,0,0,0,0,0,0,1.0414,1.0414,1.0417,1.0414,1.0414,1.0412,1.0411,1.0414,1.0411,1.041,1.0409,1.0409,1.0408,1.0408,1.0408,1.0412,1.0406,1.0407,1.0407,1.0407,1.0422,1.0422,0,0,0,0,0,0,1.0415,1.0414,1.0417,1.0417,1.0413,1.0412,1.0412,1.0413,1.0411,1.041,1.0409,1.0409,1.0408,1.0408,1.0408,1.0415,1.0407,1.0407,1.0407,1.0421,1.0422,1.0422,0,0,0,0,0,0,1.0414,1.0415,1.0417,1.0415,1.0416,1.0412,1.0414,1.0413,1.0413,1.041,1.041,1.041,1.0408,1.0408,1.0411,1.0415,1.0407,1.0407,1.0421,1.0422,1.0422,1.0431,0,0,0,0,0,0,1.0414,1.0415,1.0418,1.0416,1.0416,1.0421,1.0414,1.0413,1.0414,1.0413,1.0411,1.041,1.0407,1.0411,1.0412,1.0415,1.0407,1.0421,1.0421,1.0422,1.043,1.0431,1.0432,0,0,0,0,0,1.0414,1.042,1.0418,1.0418,1.0419,1.0421,1.0421,1.0418,1.0414,1.0416,1.0414,1.0411,1.0415,1.0412,1.0412,1.0416,1.042,1.0421,1.0422,1.0429,1.0431,1.0432,0,0,0,0,0,0,1.0423,1.042,1.0417,1.0423,1.0422,1.042,1.0423,1.0419,1.042,1.0419,1.0415,1.0414,1.0419,1.0418,1.0414,1.0422,1.0417,1.0418,1.0423,1.0424,1.0425,1.0425,1.0407,0,0,0,0,0,1.0425,1.0427,1.0425,1.043,1.043,1.0426,1.0427,1.0424,1.0424,1.0423,1.0422,1.0421,1.0422,1.0423,1.0424,1.043,1.0429,1.0433,1.0434,1.0435,1.0435,1.0438,1.0439,1.0424,1.0424,1.0424,0,0,1.043,1.0429,1.0431,1.0431,1.0431,1.0433,1.0426,1.0429,1.043,1.0424,1.0427,1.0426,1.0425,1.0429,1.0431,1.0429,1.0439,1.0436,1.0436,1.0436,1.0439,1.044,1.0441,1.0425,1.0425,1.0424,0,0,1.0441,1.044,1.0444,1.0443,1.0442,1.044,1.0441,1.0439,1.0438,1.0441,1.0437,1.0438,1.044,1.044,1.044,1.0449,1.0446,1.045,1.0456,1.0459,1.046,1.0461,1.0464,1.0465,1.045,1.0451,1.0451,0,1.0447,1.045,1.0446,1.0449,1.0449,1.0444,1.0447,1.0447,1.0447,1.0447,1.0444,1.0446,1.0445,1.0449,1.0452,1.0452,1.0453,1.045,1.046,1.0461,1.0462,1.0465,1.0466,1.0451,1.0451,1.0451,1.0451,0,1.0458,1.046,1.0463,1.0463,1.0463,1.0467,1.0463,1.0464,1.0461,1.0459,1.0463,1.0461,1.0461,1.0462,1.046,1.0466,1.0464,1.0461,1.0455,1.0464,1.0466,1.0467,1.0452,1.0452,1.0451,1.0451,0,0,1.0474,1.0471,1.0472,1.0472,1.047,1.0471,1.0474,1.0475,1.0475,1.0475,1.0477,1.0479,1.0476,1.0475,1.0473,1.0475,1.0482,1.0471,1.0471,1.0473,1.0489,1.0491,1.0492,1.048,1.048,1.048,1.0489,0,1.0483,1.0488,1.0485,1.049,1.0491,1.0486,1.0488,1.0487,1.0486,1.0487,1.0484,1.0486,1.0481,1.0481,1.0483,1.0481,1.0485,1.048,1.0481,1.0481,1.0481,1.0494,1.0497,1.0505,1.049,1.049,1.049,0,1.0495,1.0495,1.0501,1.0498,1.0499,1.0501,1.0501,1.0502,1.0501,1.0499,1.0499,1.0496,1.0498,1.0493,1.0496,1.0492,1.0493,1.0492,1.0492,1.0492,1.0486,1.0494,1.0507,1.0508,1.0492,1.0491,1.0491,0,1.0506,1.0507,1.051,1.051,1.0508,1.0509,1.0508,1.0507,1.0507,1.0507,1.0507,1.0507,1.0507,1.0507,1.0504,1.05,1.0507,1.0502,1.0505,1.0505,1.0507,1.0507,1.052,1.0507,1.0507,1.0507,1.0507,0,1.0516,1.052,1.0515,1.0517,1.052,1.0516,1.052,1.0518,1.0517,1.0518,1.0514,1.0515,1.0511,1.0511,1.0509,1.0511,1.0511,1.051,1.0509,1.051,1.051,1.051,1.0509,1.0508,1.0508,1.0508,1.0508,0,1.0529,1.0526,1.0529,1.0526,1.0525,1.0528,1.0525,1.0527,1.0525,1.0527,1.0527,1.0523,1.0524,1.0521,1.0521,1.0519,1.0523,1.0521,1.0523,1.0522,1.0526,1.0526,1.054,1.0541,1.0528,1.0528,1.0528,0,1.0536,1.0538,1.0536,1.0536,1.0535,1.0536,1.0537,1.0533,1.0533,1.0532,1.0533,1.0534,1.0534,1.0535,1.0532,1.0532,1.053,1.0535,1.053,1.0531,1.053,1.053,1.053,1.0536,1.0536,1.0537,1.0537,0,1.0548,1.0546,1.0547,1.0547,1.0547,1.0547,1.0546,1.0547,1.0543,1.0543,1.0544,1.0544,1.0544,1.0544,1.0544,1.0542,1.0539,1.0538,1.0539,1.054,1.0541,1.054,1.0525,1.0538,1.0538,1.0538,1.0538,1.0538,1.0558,1.0559,1.0558,1.0558,1.0558,1.0557,1.0558,1.0556,1.0557,1.0556,1.0554,1.0555,1.0553,1.0552,1.0551,1.0552,1.0549,1.0551,1.0551,1.0551,1.0552,1.0541,1.0552,1.0552,1.0552,1.0552,1.0552,0,1.057,1.0568,1.0569,1.0568,1.0569,1.0565,1.0564,1.0565,1.0566,1.0565,1.0565,1.0565,1.0565,1.0563,1.0562,1.0563,1.0562,1.0563,1.0563,1.0563,1.0554,1.0553,1.0565,1.0565,1.0565,1.0565,1.0565,1.0565,1.0576,1.0579,1.0577,1.0579,1.0577,1.0578,1.0578,1.0577,1.0576,1.0577,1.0577,1.0576,1.0574,1.0573,1.0573,1.0572,1.0572,1.0574,1.0573,1.0565,1.0564,1.0562,1.0561,1.0575,1.0575,1.0582,1.0582,1.0582]}]]